Regional Weather Roundup
Issued by NWS

Home | Current Version | Previous Version | Text Only | Print | Product List | Glossary Off
Versions: 1 2 3 4 5 6 7 8 9 10 11 12 13 14 15 16 17 18 19 20 21 22 23 24 25 26 27 28 29 30 31 32 33 34 35 36 37 38 39 40 41 42 43 44 45 46 47 48 49 50

101
ASUS45 KBOU 291207
RWRCO

WEATHER ROUNDUP FOR COLORADO
NATIONAL WEATHER SERVICE DENVER/BOULDER CO
600 AM MDT MON MAY 29 2017

NOTE: "FAIR" INDICATES FEW OR NO CLOUDS BELOW 12000 FEET WITH NO
SIGNIFICANT WEATHER AND/OR OBSTRUCTIONS TO VISIBILITY.

COZ001>005-013-030-031-291300-
...NORTHWEST COLORADO...

CITY           SKY/WX    TMP DP  RH WIND       PRES   REMARKS
CRAIG          FAIR      32  29  88 W3        30.28R
HAYDEN         FAIR      39  28  65 E10       30.28R
MEEKER         FAIR      35  29  78 CALM      30.27S
RABBIT EARS PA FAIR      36  27  69 CALM      30.42S
STEAMBOAT SPGS FAIR      34  31  90 CALM      30.30R
WALDEN           N/A     30  27  86 SE7       30.37S WCI  23
$$

COZ006>008-011-291300-
...WEST CENTRAL VALLEYS...

CITY           SKY/WX    TMP DP  RH WIND       PRES   REMARKS
GRAND JUNCTION FAIR      51  29  42 SE10      30.17R
MONTROSE       FAIR      43  25  49 SE7       30.24R
EAGLE          FAIR      36  29  75 CALM      30.33R
RIFLE          FAIR      42  32  67 VRB5      30.24R
DELTA          FAIR      46  29  52 CALM      30.21R
NUCLA          FAIR      45  21  39 E5        30.25S
$$

COZ017>023-064>068-291300-
...SOUTHWEST COLORADO...

CITY           SKY/WX    TMP DP  RH WIND       PRES   REMARKS
DURANGO        FAIR      32  21  64 E3        30.24R
CORTEZ         FAIR      34  28  79 CALM      30.21R
PAGOSA SPRINGS FAIR      37  17  44 CALM      30.30R
TELLURIDE      FAIR      38  20  47 SE6       30.37S
WOLF CREEK PAS FAIR      34   9  35 SW5       30.53R WCI  30
$$

COZ009-010-012-014-032>034-037-058>063-291300-
...CENTRAL COLORADO...

CITY           SKY/WX    TMP DP  RH WIND       PRES   REMARKS
ASPEN          FAIR      34  27  75 VRB3      30.31S
BUENA VISTA    FAIR      36  26  66 NW9       30.35S
COPPER MTN     FAIR      34  21  60 SW7       30.48S WCI  28
BERTHOUD PASS  FAIR      28  18  64 NW14      30.49S WCI  17
COTTONWOOD PAS FAIR      43  23  45 W7        30.41S
GUNNISON       FAIR      32  27  81 CALM      30.35R
KREMMLING      FAIR      37  34  87 CALM      30.36R
LEADVILLE      FAIR      28  21  75 NE3       30.39S
MONARCH PASS   FAIR      32  27  80 E9        30.58R WCI  24
SALIDA         FAIR      41  28  58 CALM      30.41S
SUNLIGHT       FAIR      34  23  64 CALM      30.46S
WILKERSON PASS FAIR      32  25  74 SW6       30.48S WCI  26
$$

COZ069>075-291300-
...SAN LUIS VALLEY/SANGRE DE CRISTO MOUNTAINS...

CITY           SKY/WX    TMP DP  RH WIND       PRES   REMARKS
ALAMOSA        FAIR      35  30  82 W6        30.30R WCI  30
DEL NORTE      FAIR      39  19  45 W12       30.33R
LA VETA PASS   FAIR      34  30  86 N9        30.53R WCI  26
SAGUACHE       FAIR      37  21  52 NW10      30.32R
$$

COZ035-036-038>040-291300-
...NORTHERN COLORADO FRONT RANGE...

CITY           SKY/WX    TMP DP  RH WIND       PRES   REMARKS
DENVER INTL AP FAIR      47  41  80 SW9       30.25F
DMNS CITY PARK   N/A     48  40  72 SE9       30.26S
AURORA         PTCLDY    44  40  86 S6        30.27S
FRONT RANGE AP FAIR      48  43  81 SW7       30.26F
ERIE MUNI ARPT FAIR      44  44  97 S3        30.26S
BOULDER MUN AP FAIR      48  41  76 SW7       30.25S
CENTENNIAL     FAIR      44  40  85 SE5       30.27S
BROOMFIELD     PTCLDY    48  41  76 NW7       30.27S
FORT COLLINS   FAIR      48  41  76 N5        30.26R
LONGMONT       FAIR      48  42  79 CALM      30.27S HAZE
$$

COZ041-046-047-076>085-087-088-291300-
...PIKES PEAK/PALMER DIVIDE AND SOUTHERN FOOTHILLS...

CITY           SKY/WX    TMP DP  RH WIND       PRES   REMARKS
COLO. SPRINGS  FAIR      48  37  65 NW6       30.29S
A. F. ACADEMY  FAIR      37  34  89 N8        30.29S
SCHRIEVER AFB  FAIR      47  37  67 N13       30.29R
CHEYENNE MTN   FAIR      48  33  57 NW3       30.26R
ELLICOTT       FAIR     N/A N/A N/A CALM      30.27R
FALCON         FAIR      45  35  68 N5        30.32R
FORT CARSON    FAIR      44  36  73 NW8       30.27R
LIMON          FAIR      42  41  96 W6        30.25S
MONUMENT HILL  FAIR      36  32  87 SW6       30.32S
CANON CITY     NOT AVBL
WALSENBURG     FAIR      45  39  81 MISG      30.30R
TRINIDAD       FAIR      41  35  79 W9        30.28R
$$

COZ042>045-048>051-090-091-291300-
...NORTHEAST COLORADO...

CITY           SKY/WX    TMP DP  RH WIND       PRES   REMARKS
GREELEY ARPT   FAIR      46  44  93 CALM      30.25R
AKRON          FAIR      46  41  82 W10       30.22S
BURLINGTON     FAIR      50  44  80 NW6       30.19R
WRAY           FAIR      46  46 100 W9        30.18R
YUMA           FAIR      45  41  87 W9        30.20R
STERLING       NOT AVBL
HOLYOKE        NOT AVBL
FORT MORGAN    FAIR      49  43  80 NW10      30.23S
$$

COZ086-089-092>099-291300-
...SOUTHEAST COLORADO...

CITY           SKY/WX    TMP DP  RH WIND       PRES   REMARKS
PUEBLO         FAIR      48  40  73 W9        30.25R
LA JUNTA       FAIR      51  44  77 SW5       30.21R
LAMAR          FAIR      45  42  89 W3        30.18R
SPRINGFIELD      N/A     50  44  80 NW6       30.22R
$$




USA.gov is the U.S. government's official web portal to all federal, state and local government web resources and services.